Emporia, VA

9:10 PM EST on November 24, 2017 (GMT -0500)
Emporia-Greensville Regional

Weather History for KEMV - March, 2014

Change the Weather History Date:

Thursday, March 13, 2014

  Actual Average Record
Temperature  
Mean Temperature 33 °F -  
Max Temperature 42 °F 60 °F 89 °F (1990)
Min Temperature 24 °F 34 °F 23 °F (2017)
Degree Days  
Heating Degree Days 32    
Moisture  
Dew Point 11 °F    
Average Humidity 39    
Maximum Humidity 64    
Minimum Humidity 19    
Precipitation  
Precipitation 0.00 in - - ()
Sea Level Pressure  
Sea Level Pressure 29.93 in    
Wind  
Wind Speed 10 mph (West)    
Max Wind Speed 20 mph    
Max Gust Speed 29 mph    
Visibility 10 miles    
Events      
Averages and records for this station are not official NWS values.
T = Trace of Precipitation, MM = Missing Value Source: NWS Daily Summary

Daily Weather History Graph

Daily Weather History Graph

Search for Another Location

Airport or City:

Trip Planner

Search our weather history database for the weather conditions in past years. The results will help you decide how hot, cold, wet, or windy it might be!

Date:

Astronomy

Mar. 13, 2014 Rise Set
Actual Time 7:23 AM EDT 7:15 PM EDT
Civil Twilight 6:57 AM EDT 7:41 PM EDT
Nautical Twilight 6:28 AM EDT 8:11 PM EDT
Astronomical Twilight 5:57 AM EDT 8:41 PM EDT
Moon 4:42 PM EDT (3/13) 5:25 AM EDT (3/13)
Length of Visible Light 12h 43m
Length of Day
11h 51m
Waxing Gibbous, 91% of the Moon is Illuminated
Mar 13
Waxing Gibbous
Mar 16
Full
Mar 23
Last Quarter
Mar 30
New
Apr 7
First Quarter

Hourly Weather History & Observations

Time (EDT) Temp. Windchill Dew Point Humidity Pressure Visibility Wind Dir Wind Speed Gust Speed Precip Events Conditions
12:15 AM 42.8 °F 37.0 °F 28.4 °F 57% 29.54 in 10.0 mi West 10.4 mph 18.4 mph N/A   Clear
12:35 AM 42.8 °F 35.4 °F 26.6 °F 53% 29.56 in 10.0 mi West 15.0 mph 20.7 mph N/A   Clear
12:55 AM 41.0 °F 35.8 °F 26.6 °F 57% 29.58 in 10.0 mi West 8.1 mph 17.3 mph N/A   Clear
1:15 AM 41.0 °F 34.3 °F 24.8 °F 53% 29.59 in - WNW 11.5 mph 21.9 mph N/A   Clear
1:35 AM 41.0 °F 34.7 °F 23.0 °F 49% 29.61 in 10.0 mi West 10.4 mph 19.6 mph N/A   Clear
1:55 AM 39.2 °F 34.2 °F 24.8 °F 56% 29.62 in 10.0 mi West 6.9 mph - N/A   Clear
2:15 AM 37.4 °F 31.4 °F 24.8 °F 60% 29.64 in 10.0 mi West 8.1 mph - N/A   Clear
2:35 AM 37.4 °F 31.4 °F 23.0 °F 56% 29.66 in 10.0 mi West 8.1 mph - N/A   Clear
2:55 AM 37.4 °F 30.8 °F 23.0 °F 56% 29.66 in - West 9.2 mph 18.4 mph N/A   Clear
3:15 AM 37.4 °F 32.8 °F 21.2 °F 52% 29.67 in 10.0 mi West 5.8 mph 18.4 mph N/A   Clear
3:35 AM 35.6 °F 29.2 °F 21.2 °F 56% 29.67 in 10.0 mi West 8.1 mph - N/A   Clear
3:55 AM 35.6 °F 29.9 °F 21.2 °F 56% 29.67 in 10.0 mi West 6.9 mph - N/A   Clear
4:15 AM 35.6 °F 28.6 °F 19.4 °F 52% 29.68 in 10.0 mi West 9.2 mph 23.0 mph N/A   Clear
4:35 AM 35.6 °F 29.9 °F 19.4 °F 52% 29.69 in 10.0 mi West 6.9 mph - N/A   Clear
4:55 AM 35.6 °F 29.9 °F 19.4 °F 52% 29.71 in 10.0 mi West 6.9 mph - N/A   Clear
5:15 AM 35.6 °F 29.9 °F 19.4 °F 52% 29.72 in 10.0 mi West 6.9 mph - N/A   Clear
5:35 AM 33.8 °F 27.7 °F 19.4 °F 56% 29.73 in 10.0 mi West 6.9 mph - N/A   Clear
5:55 AM 33.8 °F 25.8 °F 21.2 °F 60% 29.74 in 10.0 mi West 10.4 mph 16.1 mph N/A   Clear
6:15 AM 33.8 °F 24.8 °F 15.8 °F 48% 29.76 in 10.0 mi West 12.7 mph 23.0 mph N/A   Clear
6:35 AM 33.8 °F 24.8 °F 14.0 °F 44% 29.78 in 10.0 mi West 12.7 mph 24.2 mph N/A   Clear
6:55 AM 32.0 °F 23.6 °F 15.8 °F 51% 29.79 in 10.0 mi West 10.4 mph - N/A   Clear
7:15 AM 32.0 °F 25.6 °F 15.8 °F 51% 29.81 in 10.0 mi West 6.9 mph - N/A   Clear
7:35 AM 32.0 °F 24.2 °F 15.8 °F 51% 29.82 in 10.0 mi West 9.2 mph - N/A   Clear
7:55 AM 32.0 °F 23.0 °F 14.0 °F 48% 29.85 in 10.0 mi WNW 11.5 mph 21.9 mph N/A   Clear
8:15 AM 32.0 °F 24.2 °F 10.4 °F 41% 29.86 in 10.0 mi West 9.2 mph 20.7 mph N/A   Clear
8:35 AM 32.0 °F 22.1 °F 8.6 °F 38% 29.88 in 10.0 mi West 13.8 mph 24.2 mph N/A   Clear
8:55 AM 32.0 °F 22.5 °F 8.6 °F 38% 29.90 in 10.0 mi West 12.7 mph 24.2 mph N/A   Clear
9:15 AM 32.0 °F 21.2 °F 6.8 °F 35% 29.92 in 10.0 mi West 16.1 mph 28.8 mph N/A   Clear
9:35 AM 32.0 °F 22.1 °F 5.0 °F 32% 29.93 in - West 13.8 mph 24.2 mph N/A   Clear
9:55 AM 32.0 °F 20.8 °F 5.0 °F 32% 29.94 in 10.0 mi West 17.3 mph 24.2 mph N/A   Clear
10:15 AM 33.8 °F 24.8 °F 6.8 °F 32% 29.95 in 10.0 mi West 12.7 mph 20.7 mph N/A   Clear
10:35 AM 33.8 °F 23.5 °F 6.8 °F 32% 29.95 in 10.0 mi West 16.1 mph 27.6 mph N/A   Clear
10:55 AM 33.8 °F 22.5 °F 5.0 °F 30% 29.96 in 10.0 mi West 19.6 mph 26.5 mph N/A   Clear
11:15 AM - - - N/A% - - North - - N/A   Unknown
11:35 AM 35.6 °F 25.9 °F 6.8 °F 30% 29.97 in 10.0 mi West 16.1 mph 24.2 mph N/A   Clear
11:55 AM 33.8 °F 23.5 °F 5.0 °F 30% 29.97 in 10.0 mi West 16.1 mph 25.3 mph N/A   Clear
12:15 PM 35.6 °F 25.9 °F 5.0 °F 28% 29.98 in 10.0 mi West 16.1 mph 26.5 mph N/A   Clear
12:35 PM 35.6 °F 25.5 °F 5.0 °F 28% 29.98 in 10.0 mi WNW 17.3 mph 27.6 mph N/A   Clear
12:55 PM 35.6 °F 26.6 °F 5.0 °F 28% 29.99 in 10.0 mi West 13.8 mph 24.2 mph N/A   Clear
1:15 PM 35.6 °F 25.5 °F 5.0 °F 28% 30.00 in 10.0 mi WSW 17.3 mph 27.6 mph N/A   Clear
1:35 PM 37.4 °F 27.5 °F 5.0 °F 26% 30.01 in 10.0 mi West 18.4 mph 26.5 mph N/A   Clear
1:55 PM 37.4 °F 28.9 °F 5.0 °F 26% 30.01 in - WNW 13.8 mph 26.5 mph N/A   Clear
2:15 PM 37.4 °F 28.9 °F 5.0 °F 26% 30.01 in 10.0 mi WNW 13.8 mph 25.3 mph N/A   Clear
2:35 PM 37.4 °F 28.9 °F 5.0 °F 26% 30.01 in 10.0 mi WSW 13.8 mph 24.2 mph N/A   Clear
2:55 PM 37.4 °F 28.5 °F 3.2 °F 24% 30.02 in 10.0 mi West 15.0 mph 25.3 mph N/A   Clear
3:15 PM 37.4 °F 28.2 °F 3.2 °F 24% 30.02 in 10.0 mi West 16.1 mph 28.8 mph N/A   Clear
3:35 PM 37.4 °F 28.5 °F 3.2 °F 24% 30.02 in 10.0 mi West 15.0 mph 24.2 mph N/A   Clear
3:55 PM 37.4 °F 30.8 °F 3.2 °F 24% 30.03 in 10.0 mi West 9.2 mph 25.3 mph N/A   Clear
4:15 PM 39.2 °F 32.0 °F 3.2 °F 22% 30.04 in 10.0 mi West 11.5 mph 25.3 mph N/A   Clear
4:35 PM 39.2 °F 32.0 °F 3.2 °F 22% 30.04 in 10.0 mi West 11.5 mph 23.0 mph N/A   Clear
4:55 PM 39.2 °F 30.5 °F 3.2 °F 22% 30.04 in 10.0 mi West 16.1 mph 23.0 mph N/A   Clear
5:15 PM 39.2 °F 30.8 °F 1.4 °F 21% 30.05 in 10.0 mi WNW 15.0 mph 21.9 mph N/A   Clear
5:35 PM 39.2 °F 32.5 °F -0.4 °F 19% 30.06 in 10.0 mi WNW 10.4 mph 18.4 mph N/A   Clear
5:55 PM 37.4 °F 31.4 °F 1.4 °F 22% 30.07 in 10.0 mi West 8.1 mph 19.6 mph N/A   Clear
6:15 PM 37.4 °F 28.9 °F -0.4 °F 20% 30.09 in 10.0 mi WNW 13.8 mph 20.7 mph N/A   Clear
6:35 PM 37.4 °F 30.3 °F 1.4 °F 22% 30.10 in 10.0 mi West 10.4 mph 20.7 mph N/A   Clear
6:55 PM 37.4 °F 32.1 °F 1.4 °F 22% 30.11 in 10.0 mi West 6.9 mph - N/A   Clear
7:15 PM 35.6 °F 29.2 °F 1.4 °F 24% 30.12 in 10.0 mi West 8.1 mph - N/A   Clear
7:35 PM 35.6 °F 29.9 °F 3.2 °F 26% 30.13 in 10.0 mi West 6.9 mph - N/A   Clear
7:55 PM 33.8 °F 30.8 °F 1.4 °F 25% 30.14 in 10.0 mi West 3.5 mph - N/A   Clear
8:15 PM 33.8 °F 30.8 °F 3.2 °F 28% 30.16 in 10.0 mi WSW 3.5 mph - N/A   Clear
8:35 PM 32.0 °F 27.5 °F 5.0 °F 32% 30.17 in 10.0 mi WSW 4.6 mph - N/A   Clear
8:55 PM 32.0 °F 28.7 °F 5.0 °F 32% 30.18 in 10.0 mi SW 3.5 mph - N/A   Clear
9:15 PM 32.0 °F - 5.0 °F 32% 30.19 in 10.0 mi Calm Calm - N/A   Clear
9:35 PM 30.2 °F 26.7 °F 8.6 °F 40% 30.20 in 10.0 mi WSW 3.5 mph - N/A   Clear
9:55 PM 32.0 °F - 8.6 °F 38% 30.21 in 10.0 mi Calm Calm - N/A   Clear
10:15 PM 24.8 °F - 14.0 °F 64% 30.22 in 10.0 mi Calm Calm - N/A   Clear
10:35 PM 26.6 °F - 14.0 °F 59% 30.23 in 10.0 mi Calm Calm - N/A   Clear
10:55 PM 24.8 °F - 14.0 °F 64% 30.23 in 10.0 mi Calm Calm - N/A   Clear
11:15 PM 26.6 °F - 12.2 °F 55% 30.24 in 10.0 mi Calm Calm - N/A   Clear
11:35 PM 26.6 °F - 14.0 °F 59% 30.24 in 10.0 mi Calm Calm - N/A   Clear
11:55 PM 26.6 °F - 14.0 °F 59% 30.23 in 10.0 mi Calm Calm - N/A   Clear